Regional Weather Roundup
Issued by NWS Grand Forks, ND

Home | Current Version | Previous Version | Text Only | Print | Product List | Glossary On
Versions: 1 2 3 4 5 6 7 8 9 10 11 12 13 14 15 16 17 18 19 20 21 22 23 24 25 26 27 28 29 30 31 32 33 34 35 36 37 38 39 40 41 42 43 44 45 46 47 48 49 50
000
ASUS43 KFGF 301910
RWRFGF
PRAIRIE TO PINES  WEATHER ROUNDUP
NATIONAL WEATHER SERVICE EASTERN NORTH DAKOTA/GRAND FORKS ND
200 PM CDT WED JUL 30 2014

 **SATELLITE DATA USED TO AUGMENT SKY COVER AT AUTOMATED STATIONS**
 *****  WEATHER ACROSS EASTERN NORTH DAKOTA  *****

CITY           SKY/WX    TMP DP  RH WIND       PRES   REMARKS
GRAND FORKS    MOSUNNY   80  57  45 N6        30.08F
GRAND FRKS AFB MOSUNNY   78  58  49 N5        30.09F
GRAND FRKS NWS   N/A     79 N/A N/A N3          N/A
DEVILS LAKE    MOSUNNY   77  54  44 NW14      30.11F
FARGO          MOSUNNY   80  54  40 N12       30.09F
WAHPETON ARPT  PTCLDY    77  46  33 NW8       30.11F
$$

 ***** WEATHER ACROSS CENTRAL AND WESTERN NORTH DAKOTA  *****

CITY           SKY/WX    TMP DP  RH WIND       PRES   REMARKS
BISMARCK       MOSUNNY   81  55  40 N5        30.14F
MINOT          MOSUNNY   78  57  48 VRB6      30.14F
JAMESTOWN      SUNNY     76  47  35 CALM      30.13F
MINOT AFB      MOSUNNY   78  58  50 NW8       30.13F
GARRISON         N/A     75  59  57 CALM      30.15F
WILLISTON      SUNNY     82  49  31 NE16      30.17F
DICKINSON      MOSUNNY   78  52  40 CALM      30.17S
HETTINGER      MOSUNNY   80  50  34 VRB5      30.18F
$$

 *****  OTHER AIRPORT OBSERVATIONS IN OUR AREA  *****

CITY           SKY/WX    TMP DP  RH WIND       PRES   REMARKS
WALHALLA       FAIR      79  54  41 N9          N/A
GRAFTON AIRPOR FAIR      77  55  47 N8        30.08F
VALLEY CITY AR FAIR      77  52  41 N10       30.13F
CANDO          FAIR      77  57  50 NW9       30.13S
CAVALIER APRT  FAIR      77  54  44 NW7       30.08F
GWINNER        PTCLDY    77  54  44 NE5       30.14S
ROLLA            N/A     75  55  50 N10G16    30.15S
 ***** THE ABOVE OBSERVATIONS ARE NON NWS ARE NOT QUALITY
       CONTROLLED AND MAY MIS-REPORT RAIN FOR SNOW...
$$

  *****  WEATHER ACROSS NORTHERN MINNESOTA  *****

CITY           SKY/WX    TMP DP  RH WIND       PRES   REMARKS
FLAG ISLAND    SUNNY     75  55  50 NW12      30.02F
WARROAD        SUNNY     77  59  53 W8        30.05F
ROSEAU         SUNNY     79  61  53 NW7       30.06F
HALLOCK        SUNNY     79  52  38 NW9       30.07F
THF RVR FALLS  SUNNY     75  52  43 W9        30.09F
BAUDETTE       SUNNY     77  56  48 NW14      30.05F
WASKISH        MOSUNNY   77  61  57 W7        30.05F
CROOKSTON      SUNNY     77  54  44 NW6       30.09F
$$
  *****  WEATHER ACROSS CENTRAL AND WEST MINNESOTA  *****

CITY           SKY/WX    TMP DP  RH WIND       PRES   REMARKS
FOSSTON        SUNNY     75  54  46 CALM      30.10F
BEMIDJI        MOSUNNY   75  57  52 N13       30.08F
PARK RAPIDS    MOSUNNY   78  52  40 NW12G17   30.08F
ELBOW LAKE     FAIR      75  59  57 NW9       30.11F
WADENA         MOSUNNY   75  55  50 W7        30.10S
DETROIT LAKES  SUNNY     75  52  43 N13       30.12F
MOORHEAD       SUNNY     77  55  47 N7        30.10F
FERGUS FALLS   MOSUNNY   75  54  46 NW12      30.10F
MORRIS MN      MOSUNNY   79  57  47 NW8       30.11F
STAPLES        SUNNY     79  52  38 NW8       30.09S
$$
  *****  WEATHER ELSEWHERE ACROSS MINNESOTA  *****

CITY           SKY/WX    TMP DP  RH WIND       PRES   REMARKS
DULUTH         PTSUNNY   76  60  57 NW14      30.01F
INTRNTL FALLS  PTSUNNY   77  57  50 NW13      30.01F
ELY            MOSUNNY   73  57  56 NW8G21    29.98F
CLOQUET        MOSUNNY   75  57  53 NW8       30.02F
WHEATON        MOSUNNY   75  54  46 NW6       30.13F
BRAINERD       MOSUNNY   77  55  46 N13       30.07F
HIBBING        MOSUNNY   77  57  50 NW15      30.02F
ALEXANDRIA     MOSUNNY   76  54  46 NW9       30.12F
SAINT CLOUD    SUNNY     82  50  32 W9G21     30.07F
MINNEAPOLIS    MOSUNNY   81  54  39 W9G20     30.06F
$$

  *****  WEATHER ACROSS SOUTH DAKOTA  *****

CITY           SKY/WX    TMP DP  RH WIND       PRES   REMARKS
SIOUX FALLS    MOSUNNY   75  55  49 VRB6      30.14F
BROOKINGS      NOT AVBL
WATERTOWN      MOSUNNY   75  54  47 NW8       30.14F
HURON          SUNNY     80  53  39 N7        30.13F
SISSETON         N/A     78  54  43 NE7       30.11F
ABERDEEN       MOSUNNY   78  56  46 NE7       30.12F
MITCHELL       SUNNY     79  55  43 E3        30.14F
PIERRE         SUNNY     84  54  35 VRB6      30.10F
MOBRIDGE       CLOUDY    81  56  42 E6        30.10F
RAPID CITY     SUNNY     82  53  36 NW8       30.18F
$$

  *****  SOME WEATHER IN NEARBY STATES *****

CITY           SKY/WX    TMP DP  RH WIND       PRES   REMARKS
GLASGOW MT     SUNNY     88  46  23 S9        30.13F
GREAT FALLS MT SUNNY     91  38  15 SE8       30.13F
CHEYENNE WY    LGT RAIN  58  54  86 SE3       30.38S
SCOTTSBLUFF NE CLOUDY    75  55  49 CALM      30.26F
OMAHA NE       MOSUNNY   79  52  38 VRB7      30.13F
DES MOINES IA  MOSUNNY   81  54  39 VRB3      30.10F
DAVENPORT IA   PTSUNNY   77  59  53 NW9       30.07F
CHICAGO IL     PTSUNNY   78  53  41 NW12G17   30.01F
EAU CLAIRE WI  MOSUNNY   74  55  51 VRB5      30.05F
LA CROSSE WI   SUNNY     76  58  53 NW7       30.06F
$$

  *****  SOME NATIONAL WEATHER *****

CITY           SKY/WX    TMP DP  RH WIND       PRES   REMARKS
LA GUARDIA NY  MOSUNNY   81  46  29 VRB6      30.00S
RALEIGH NC     PTSUNNY   78  62  57 SE8       30.06F
ATLANTA GA     MOSUNNY   81  57  43 VRB7      30.04F
NEW ORLEANS LA MOSUNNY   85  61  44 VRB7      30.04F
OKLAHOMA CITY  LGT RAIN  72  69  90 SE14      30.02F
ALBUQUERQUE NM MOSUNNY   81  55  40 SW7       30.21F
SALT LAKE CITY PTSUNNY   71  60  68 N9        30.21F
LOS ANGELES CA PTSUNNY   78  62  57 W12       29.96S
BOISE ID       MOSUNNY   89  50  26 NE6       30.13F
SEATTLE WA     MOSUNNY   72  57  59 W8        30.16S
$$

*** WEATHER ACROSS MANITOBA...SASKATCHEWAN AND ONTARIO ***
                ***ONTARIO***

CITY           SKY/WX    TMP DP  RH WIND       PRES   REMARKS
GERALDTON      LGT RAIN  57  54  88 N7        29.91R
THUNDER BAY    PTSUNNY   70  61  73 W6        29.93F
SIOUX LOOKOUT  CLOUDY    72  52  49 N7        29.99F
TORONTO        TSTM      63  55  77 SW13G31   29.96R
BIG TROUT LK   MOSUNNY   70  46  43 N13G21    29.97F
PICKLE LAKE    PTSUNNY   70  46  43 N5G18     29.96S
DRYDEN         SUNNY     73  46  38 N9G17     30.00
KENORA         CLOUDY    75  57  53 NW13      30.03F
$$
                *** MANITOBA***

CITY           SKY/WX    TMP DP  RH WIND       PRES   REMARKS
BRANDON        MOSUNNY   79  57  47 NW6       30.11F
DAUPHIN        SUNNY     82  55  39 W8        30.08S
ISLAND LAKE    PTSUNNY   75  52  43 N8        30.05F
PILOT MOUND      N/A     75  54  46 NW7         N/A
THE PAS        MOSUNNY   82  54  36 NW6       30.06F
THOMPSON       MOSUNNY   79  55  44 NE6       30.06F
WINNIPEG       MOSUNNY   81  55  41 NW9       30.06F
LYNN LAKE      SUNNY     84  50  30 NE7       30.07F
CHURCHILL      SUNNY     68  54  60 NE10      30.11S
GILLAM         CLOUDY    73  52  46 NE5       30.08S
$$
                ***SASKATCHEWAN***

CITY           SKY/WX    TMP DP  RH WIND       PRES   REMARKS
ESTEVAN        MOSUNNY   75  54  46 E6        30.19F
KINDERSLEY     MOSUNNY   81  63  54 S9        30.06F
LLOYDMINSTER   MOSUNNY   79  64  61 E9        30.06S
PRINCE ALBERT  MOSUNNY   81  63  54 SE5       30.11F
REGINA         PTSUNNY   77  57  50 S10       30.15F
YORKTON        MOSUNNY   79  57  47 N7        30.14F
N. BATTLEFORD    N/A     79  63  57 SE18G24   30.09R
LA RONGE       MOSUNNY   82  55  39 S8        30.09F
SASKATOON      PTSUNNY   77  61  57 SE15      30.12S
SWIFT CURRENT  SUNNY     84  54  34 S8        30.09F
$$
NOTE: THESE ARE AUTOMATED STATIONS WITH LIMITED QUALITY CONTROL
      "FAIR" INDICATES FEW OR NO CLOUDS BELOW 12,000 FEET WITH NO
      SIGNIFICANT WEATHER AND/OR OBSTRUCTIONS TO VISIBILITY.
      SKY/WX - SKY CONDITION AND SIGNIFICANT WEATHER.
      TMP - AIR TEMPERATURE.    DP   - DEWPOINT TEMPERATURE.
      RH  - RELATIVE HUMIDITY.  PRES - PRESSURE.
      HX  - HEAT INDEX.         WCI  - WIND CHILL INDEX.
$



USA.gov is the U.S. government's official web portal to all federal, state and local government web resources and services.